Location: Leuk
(46.3174°N, 7.6341°E)
Time: 03:18:28
(UTC+00:00)

Cosmos 2322 - Visible Passes

Search period start: 06 October 2022 00:00
Search period end: 16 October 2022 00:00
Orbit: 842 x 853 km, 71.0° (Epoch: 05 October)

Date Brightness Start Highest point End Pass type
(mag) Time Alt. Az. Time Alt. Az. Time Alt. Az.
06 Oct 6.3 03:26:13 10° N 03:30:05 18° NE 03:33:55 10° E visible
06 Oct6.620:16:49NNE20:16:49NNE20:02:25SSWvisible
07 Oct 6.3 03:12:55 10° N 03:16:44 18° NE 03:20:32 10° E visible
07 Oct 3.9 04:56:07 10° NNW 05:01:50 82° ENE 05:07:32 10° SSE visible
07 Oct 5.6 18:09:43 10° SE 18:10:04 11° SE 18:10:04 11° SE visible
07 Oct 5.6 19:50:54 10° SSW 20:03:21 - NNE 19:52:12 18° SSW visible
07 Oct 6.5 21:45:15 10° N 21:45:15 10° N 21:45:25 10° N visible
08 Oct 6.3 02:59:37 10° N 03:03:24 18° NE 03:07:10 10° E visible
08 Oct 3.9 04:42:48 10° NNW 04:48:32 81° ENE 04:54:13 10° SSE visible
08 Oct 5.1 17:56:29 10° SE 17:59:49 16° E 18:00:22 16° E visible
08 Oct 3.8 19:37:35 10° SSW 19:49:34 - NNE 19:42:34 69° SW visible
08 Oct 6.4 21:24:36 10° W 21:31:24 12° N 21:32:07 10° N visible
09 Oct 6.3 02:46:20 10° N 02:50:04 17° NE 02:53:47 10° E visible
09 Oct 3.9 04:29:28 10° NNW 04:35:12 79° ENE 04:40:54 10° SSE visible
09 Oct 5.1 17:43:15 10° SE 17:46:31 16° E 17:49:48 10° ENE visible
09 Oct 3.6 19:24:16 10° SSW 19:29:55 83° WNW 19:35:37 10° NNE visible
09 Oct 6.1 21:11:14 10° W 21:15:01 18° NW 21:18:49 10° N visible
10 Oct 6.3 02:33:02 10° N 02:36:43 17° NE 02:40:24 10° E visible
10 Oct 3.9 04:16:10 10° NNW 04:21:53 78° ENE 04:27:35 10° SSE visible
10 Oct 5.1 17:30:02 10° SE 17:33:13 15° E 17:36:25 10° ENE visible
10 Oct 3.6 19:10:57 10° SSW 19:16:36 84° WNW 19:22:18 10° NNE visible
10 Oct 6.1 20:57:51 10° W 21:01:41 18° NW 21:05:32 10° N visible
11 Oct 6.3 02:19:45 10° N 02:23:23 17° NE 02:27:02 10° E visible
11 Oct 3.9 04:02:50 10° NNW 04:08:34 77° ENE 04:14:15 10° SSE visible
11 Oct 5.2 17:16:49 10° SE 17:19:55 15° E 17:23:01 10° ENE visible
11 Oct 3.6 18:57:37 10° SSW 19:03:17 86° WNW 19:08:59 10° NNE visible
11 Oct 6.1 20:44:28 10° W 20:48:20 18° NW 20:52:14 10° N visible
12 Oct 6.3 02:06:27 10° N 02:10:03 17° NE 02:13:38 10° E visible
12 Oct 3.9 03:49:31 10° NNW 03:55:15 75° ENE 04:00:56 10° SSE visible
12 Oct 3.6 18:44:19 10° SSW 18:49:58 87° WNW 18:55:40 10° NNE visible
12 Oct 6.1 20:31:05 10° W 20:35:00 19° NW 20:38:56 10° N visible
13 Oct 6.3 01:53:09 10° N 01:56:43 17° NE 02:00:16 10° E visible
13 Oct 3.9 03:36:13 10° NNW 03:41:55 74° ENE 03:47:37 10° SSE visible
13 Oct 3.6 18:30:59 10° SSW 18:36:38 88° WNW 18:42:21 10° NNE visible
13 Oct 6.1 20:17:43 10° W 20:21:40 19° NW 20:25:39 10° N visible
14 Oct 6.3 01:39:52 10° N 01:43:22 16° NE 01:46:53 10° ENE visible
14 Oct 3.9 03:22:53 10° NNW 03:28:36 73° ENE 03:34:17 10° SSE visible
14 Oct 5.0 05:08:19 10° WNW 05:12:09 19° W 05:15:58 10° SW visible
14 Oct 3.7 18:17:40 10° SSW 18:23:20 90° WNW 18:29:02 10° NNE visible
14 Oct 6.1 20:04:20 10° W 20:08:20 19° NW 20:12:21 10° N visible
15 Oct 6.2 01:26:34 10° N 01:30:02 16° NE 01:33:29 10° ENE visible
15 Oct 3.9 03:09:35 10° NNW 03:15:18 71° ENE 03:20:58 10° SSE visible
15 Oct 5.0 04:54:57 10° WNW 04:58:50 19° W 05:02:43 10° SW visible
15 Oct 3.7 18:04:21 10° SSW 18:10:00 89° ESE 18:15:43 10° NNE visible
15 Oct 6.1 19:50:58 10° W 19:55:00 20° NW 19:59:03 10° N visible
